Location: Boda
(47.1872°N, 9.5454°E)
Time: 18:34:27
(UTC+00:00)

Cosmos 1674 - Pass Details

Date: 14 May 2021
Orbit: 492 x 517 km, 82.5° (Epoch: 16 June)

Event Time Altitude Azimuth Distance (km) Brightness Sun altitude
Exits shadow 00:31:36 22° 110° (ESE) 1,153 4.4 -22.1°
Maximum altitude 00:32:27 24° 89° (E) 1,094 4.5 -22.1°
Drops below altitude 10° 00:35:35 10° 35° (NE) 1,752 6.4 -21.9°
Sets 00:37:59 0° 21° (NNE) 2,641 7.8 -21.8°
